Weather History for Minneapolis Crystal, MN

Change the Weather History Date:

Wednesday, February 13, 2013

  Actual Average Record
Temperature  
Mean Temperature 30 °F -  
Max Temperature 39 °F 27 °F 46 °F (2011)
Min Temperature 21 °F 12 °F 3 °F (2001)
Degree Days  
Heating Degree Days 35    
Moisture  
Dew Point 24 °F    
Average Humidity 81    
Maximum Humidity 96    
Minimum Humidity 57    
Precipitation  
Precipitation 0.15 in - - ()
Sea Level Pressure  
Sea Level Pressure 29.67 in    
Wind  
Wind Speed 4 mph (SW)    
Max Wind Speed 9 mph    
Max Gust Speed -    
Visibility 6 miles    
Events Fog , Snow    
Averages and records for this station are not official NWS values.
T = Trace of Precipitation, MM = Missing Value Source: NWS Daily Summary

Daily Weather History Graph

Daily Weather History Graph

Search for Another Location

Airport:

Trip Planner

Search our weather history database for the weather conditions in past years. The results will help you decide how hot, cold, wet, or windy it might be!

Date:

Astronomy

Feb. 13, 2013 Rise Set
Actual Time 7:16 AM CST 5:38 PM CST
Civil Twilight 6:46 AM CST 6:09 PM CST
Nautical Twilight 6:12 AM CST 6:43 PM CST
Astronomical Twilight 5:38 AM CST 7:17 PM CST
Moon 8:34 AM CST (2/13) 9:56 PM CST (2/13)
Length of Visible Light 11h 22m
Length of Day
10h 21m
Waxing Crescent, 14% of the Moon is Illuminated
Feb 13
Waxing Crescent
Feb 17
First Quarter
Feb 25
Full
Mar 4
Last Quarter
Mar 11
New

Hourly Weather History & Observations

Time (CST) Temp. Windchill Dew Point Humidity Pressure Visibility Wind Dir Wind Speed Gust Speed Precip Events Conditions
12:53 AM 21.9 °F 15.7 °F 16.0 °F 78% 29.81 in 10.0 mi West 4.6 mph - N/A   Overcast
1:53 AM 21.9 °F - 16.0 °F 78% 29.80 in 10.0 mi Calm Calm - N/A   Mostly Cloudy
2:53 AM 23.0 °F 15.8 °F 17.1 °F 78% 29.79 in 10.0 mi WSW 5.8 mph - N/A   Overcast
3:53 AM 23.0 °F 15.8 °F 17.1 °F 78% 29.77 in 10.0 mi WSW 5.8 mph - N/A   Overcast
4:53 AM 21.9 °F 17.2 °F 17.1 °F 82% 29.77 in 10.0 mi SSW 3.5 mph - N/A   Clear
5:53 AM 21.0 °F 16.2 °F 17.1 °F 85% 29.77 in 9.0 mi South 3.5 mph - N/A   Overcast
6:53 AM 21.0 °F 16.2 °F 16.0 °F 81% 29.75 in 9.0 mi South 3.5 mph - N/A   Overcast
7:53 AM 21.0 °F 14.6 °F 17.1 °F 85% 29.75 in 8.0 mi SSW 4.6 mph - N/A   Overcast
8:53 AM 21.9 °F 15.7 °F 17.1 °F 82% 29.75 in 8.0 mi South 4.6 mph - N/A   Overcast
9:53 AM 23.0 °F 13.1 °F 17.1 °F 78% 29.74 in 9.0 mi SSW 9.2 mph - N/A   Overcast
10:53 AM 28.0 °F 20.8 °F 19.9 °F 72% 29.73 in 10.0 mi SW 6.9 mph - N/A   Overcast
11:53 AM 30.9 °F 23.5 °F 23.0 °F 72% 29.71 in 10.0 mi SSW 8.1 mph - N/A   Scattered Clouds
12:53 PM 34.0 °F 27.2 °F 23.0 °F 64% 29.68 in 10.0 mi SSW 8.1 mph - N/A   Clear
1:53 PM 37.0 °F 31.6 °F 24.1 °F 59% 29.65 in 10.0 mi South 6.9 mph - N/A   Clear
2:53 PM 39.0 °F 33.4 °F 25.0 °F 57% 29.64 in 10.0 mi SW 8.1 mph - N/A   Scattered Clouds
3:53 PM 36.0 °F 30.3 °F 25.0 °F 64% 29.65 in 10.0 mi SW 6.9 mph - N/A   Overcast
4:53 PM 35.1 °F 30.1 °F 28.0 °F 76% 29.65 in 9.0 mi WSW 5.8 mph - N/A   Overcast
5:53 PM 34.0 °F - 28.9 °F 82% 29.63 in 10.0 mi Calm Calm - 0.00 in   Overcast
6:26 PM 33.8 °F 30.8 °F 28.4 °F 81% 29.60 in 3.0 mi East 3.5 mph - 0.00 in Snow Light Snow
6:51 PM 33.8 °F - 30.2 °F 87% 29.59 in 2.0 mi Calm Calm - 0.00 in Snow Light Snow
6:53 PM 33.1 °F - 30.0 °F 89% 29.63 in 2.0 mi Calm Calm - 0.00 in Snow Light Snow
7:20 PM 33.8 °F - 30.2 °F 87% 29.59 in 1.2 mi Calm Calm - 0.02 in Snow Light Snow
7:53 PM 33.1 °F - 30.9 °F 92% 29.61 in 1.0 mi Calm Calm - 0.03 in Snow Light Snow
8:02 PM 33.8 °F - 30.2 °F 87% 29.57 in 1.0 mi Calm Calm - 0.00 in Snow Light Snow
8:09 PM 33.8 °F - 30.2 °F 87% 29.57 in 1.0 mi Calm Calm - 0.01 in Snow Light Snow
8:25 PM 33.8 °F - 30.2 °F 87% 29.56 in 1.2 mi Calm Calm - 0.01 in Snow Light Snow
8:53 PM 33.1 °F - 30.9 °F 92% 29.59 in 1.0 mi Calm Calm - 0.02 in Snow Light Snow
9:26 PM 32.0 °F - 30.2 °F 93% 29.55 in 0.8 mi Calm Calm - 0.01 in Snow Light Snow
9:53 PM 32.0 °F - 30.9 °F 96% 29.58 in 0.8 mi Calm Calm - 0.02 in Snow Light Snow
10:53 PM 32.0 °F 27.5 °F 30.9 °F 96% 29.58 in 0.5 mi NNE 4.6 mph - 0.05 in Fog , Snow Snow
11:53 PM 32.0 °F 24.2 °F 30.9 °F 96% 29.60 in 1.0 mi North 9.2 mph - 0.03 in Snow Light Snow